Weather History for Springfield, VT

Change the Weather History Date:

Wednesday, March 5, 2014

  Actual Average Record
Temperature  
Mean Temperature 17 °F 28 °F  
Max Temperature 23 °F 38 °F 46 °F (1997)
Min Temperature 10 °F 18 °F 1 °F (2009)
Degree Days  
Heating Degree Days 48 37  
Month to date heating degree days 256 188  
Since 1 July heating degree days 5967 5633  
Cooling Degree Days 0 0  
Month to date cooling degree days 0 0  
Year to date cooling degree days 0 0  
Moisture  
Dew Point 8 °F    
Average Humidity 70    
Maximum Humidity 88    
Minimum Humidity 51    
Precipitation  
Precipitation T in 0.06 in 0.73 in (2008)
Month to date precipitation T 0.32  
Year to date precipitation 3.69 5.93  
Sea Level Pressure  
Sea Level Pressure 30.36 in    
Wind  
Wind Speed 3 mph (North)    
Max Wind Speed 10 mph    
Max Gust Speed 17 mph    
Visibility 8 miles    
Events Snow    
T = Trace of Precipitation, MM = Missing Value Source: NWS Daily Summary

Daily Weather History Graph

Daily Weather History Graph

Search for Another Location

Airport:

Trip Planner

Search our weather history database for the weather conditions in past years. The results will help you decide how hot, cold, wet, or windy it might be!

Date:

Astronomy

Mar. 05, 2014 Rise Set
Actual Time 6:19 AM EST 5:44 PM EST
Civil Twilight 5:51 AM EST 6:12 PM EST
Nautical Twilight 5:18 AM EST 6:45 PM EST
Astronomical Twilight 4:45 AM EST 7:18 PM EST
Moon 8:35 AM EST (3/5) 10:59 PM EST (3/5)
Length of Visible Light 12h 21m
Length of Day
11h 24m
Waxing Crescent, 23% of the Moon is Illuminated
Mar 5
Waxing Crescent
Mar 8
First Quarter
Mar 16
Full
Mar 23
Last Quarter
Mar 30
New

Hourly Weather History & Observations

Time (EST) Temp. Windchill Dew Point Humidity Pressure Visibility Wind Dir Wind Speed Gust Speed Precip Events Conditions
12:54 AM 15.1 °F 9.4 °F 9.0 °F 77% 30.27 in 10.0 mi NE 3.5 mph - N/A   Overcast
1:54 AM 15.1 °F - 9.0 °F 77% 30.27 in 10.0 mi Calm Calm - N/A   Overcast
2:54 AM 15.1 °F - 10.0 °F 80% 30.27 in 7.0 mi Calm Calm - 0.00 in Snow Light Snow
3:54 AM 15.1 °F - 10.9 °F 84% 30.27 in 8.0 mi Calm Calm - 0.00 in Snow Light Snow
4:54 AM 14.0 °F - 10.9 °F 88% 30.28 in 5.0 mi Calm Calm - 0.00 in Snow Light Snow
5:54 AM 14.0 °F - 10.9 °F 88% 30.28 in 6.0 mi Calm Calm - 0.00 in Snow Light Snow
6:54 AM 15.1 °F - 12.0 °F 88% 30.30 in 5.0 mi Calm Calm - 0.00 in   Overcast
7:54 AM 16.0 °F - 10.0 °F 77% 30.31 in 10.0 mi Calm Calm - N/A   Overcast
8:54 AM 17.1 °F 11.7 °F 9.0 °F 71% 30.33 in 10.0 mi Variable 3.5 mph - N/A   Overcast
9:54 AM 18.0 °F 12.7 °F 10.0 °F 71% 30.33 in 7.0 mi Variable 3.5 mph - 0.00 in Snow Light Snow
10:54 AM 19.0 °F - 10.0 °F 68% 30.33 in 6.0 mi Calm Calm - 0.00 in Snow Light Snow
11:54 AM 19.9 °F 14.9 °F 10.0 °F 65% 30.32 in 10.0 mi Variable 3.5 mph - 0.00 in   Overcast
12:03 PM 21.0 °F 16.2 °F 10.0 °F 63% 30.28 in 10.0 mi NNE 3.5 mph - N/A   Overcast
12:54 PM 21.0 °F 16.2 °F 9.0 °F 60% 30.30 in 10.0 mi East 3.5 mph - N/A   Overcast
1:54 PM 23.0 °F 14.7 °F 9.0 °F 55% 30.31 in 10.0 mi NNW 6.9 mph - N/A   Overcast
2:54 PM 23.0 °F - 9.0 °F 55% 30.32 in 10.0 mi Calm Calm - N/A   Overcast
3:52 PM 21.2 °F 12.6 °F 12.2 °F 68% 30.31 in 2.5 mi NNW 6.9 mph - 0.00 in Snow Light Snow
3:54 PM 21.9 °F 14.5 °F 14.0 °F 72% 30.35 in 1.8 mi NNW 5.8 mph - 0.00 in Snow Light Snow
4:47 PM 19.9 °F 10.1 °F 12.9 °F 74% 30.34 in 3.0 mi North 8.1 mph - 0.00 in Snow Light Snow
4:54 PM 19.9 °F 11.1 °F 12.0 °F 71% 30.38 in 6.0 mi North 6.9 mph - 0.00 in   Haze
5:54 PM 19.0 °F 13.9 °F 8.1 °F 62% 30.41 in 10.0 mi North 3.5 mph - N/A   Mostly Cloudy
6:54 PM 17.1 °F 8.7 °F 5.0 °F 59% 30.45 in 10.0 mi Variable 5.8 mph - N/A   Clear
7:54 PM 16.0 °F 6.3 °F -0.0 °F 49% 30.47 in 10.0 mi North 6.9 mph - N/A   Clear
8:54 PM 15.1 °F 9.4 °F 1.9 °F 56% 30.51 in 10.0 mi Variable 3.5 mph - N/A   Overcast
9:54 PM 12.9 °F 3.8 °F 1.0 °F 59% 30.53 in 10.0 mi Variable 5.8 mph - N/A   Partly Cloudy
10:54 PM 10.9 °F 4.7 °F -4.0 °F 51% 30.56 in 10.0 mi Variable 3.5 mph - N/A   Clear
11:54 PM 10.0 °F 0.4 °F -5.1 °F 51% 30.57 in 10.0 mi NNE 5.8 mph - N/A   Clear